Location: Unspecified
(45.6669°N, 0.0000°E)
Time: 19:21:37
(UTC+00:00)

ISS - Pass Details

Date: 22 May 2019
Orbit: 408 x 418 km, 51.6° (Epoch: 18 June)

Event Time Altitude Azimuth Distance (km) Brightness Sun altitude
Rises 20:34:02 0° 255° (WSW) 2,345 0.5 -9.5°
Reaches altitude 10° 20:36:09 10° 260° (W) 1,487 -0.4 -9.8°
Maximum altitude 20:39:25 52° 338° (NNW) 523 -2.9 -10.2°
Drops below altitude 10° 20:42:43 10° 57° (ENE) 1,499 -1.1 -10.6°
Sets 20:44:52 0° 62° (ENE) 2,367 -0.1 -10.9°
